Saint Bonnet de Bellac- Haute Vienne - France
Donnes mto: samedi, 22/09/2012
Date Horaire Temp. E. Hum. E. P.atmo. Pluie Vent Direction Direction Ensoleilleme Solaire P. de rose Temp au vent Rafales
22/09/2012 00:00 16,1 C 85 % 1013,2 hPa 0,0 mm 0,0 km/h (0 Bft) NE 45 0 min 0 W/m 13,6 C 16,1 C 0,0 km/h (0 Bft)
22/09/2012 00:10 15,9 C 85 % 1013,2 hPa 0,0 mm 0,0 km/h (0 Bft) NE 45 0 min 0 W/m 13,4 C 15,9 C 0,0 km/h (0 Bft)
22/09/2012 00:20 15,9 C 85 % 1013,3 hPa 0,0 mm 0,0 km/h (0 Bft) NE 45 0 min 0 W/m 13,4 C 15,9 C 0,0 km/h (0 Bft)
22/09/2012 00:30 15,9 C 85 % 1013,2 hPa 0,0 mm 0,0 km/h (0 Bft) NE 45 0 min 0 W/m 13,4 C 15,9 C 0,0 km/h (0 Bft)
22/09/2012 00:40 15,9 C 87 % 1013,3 hPa 0,0 mm 0,0 km/h (0 Bft) SO 225 0 min 0 W/m 13,7 C 15,9 C 0,0 km/h (0 Bft)
22/09/2012 00:50 16,0 C 87 % 1013,1 hPa 0,0 mm 0,0 km/h (0 Bft) SE 135 0 min 0 W/m 13,8 C 16,0 C 0,0 km/h (0 Bft)
22/09/2012 01:00 16,1 C 87 % 1013,0 hPa 0,0 mm 0,0 km/h (0 Bft) SE 135 0 min 0 W/m 13,9 C 16,1 C 0,0 km/h (0 Bft)
22/09/2012 01:10 16,2 C 87 % 1013,1 hPa 0,0 mm 1,4 km/h (1 Bft) S-SO 202 0 min 0 W/m 14,0 C 16,2 C 3,6 km/h (1 Bft)
22/09/2012 01:20 16,4 C 89 % 1013,1 hPa 0,0 mm 6,1 km/h (2 Bft) SO 225 0 min 0 W/m 14,6 C 16,4 C 9,4 km/h (2 Bft)
22/09/2012 01:30 16,9 C 89 % 1012,9 hPa 0,0 mm 6,8 km/h (2 Bft) S-SO 202 0 min 0 W/m 15,1 C 16,9 C 9,0 km/h (2 Bft)
22/09/2012 01:40 17,3 C 87 % 1012,9 hPa 0,0 mm 5,4 km/h (2 Bft) S 180 0 min 0 W/m 15,1 C 17,3 C 7,2 km/h (2 Bft)
22/09/2012 01:50 17,4 C 87 % 1013,0 hPa 0,0 mm 0,7 km/h (0 Bft) S 180 0 min 0 W/m 15,2 C 17,4 C 0,7 km/h (0 Bft)
22/09/2012 02:00 17,3 C 86 % 1013,1 hPa 0,0 mm 0,7 km/h (0 Bft) S-SO 202 0 min 0 W/m 14,9 C 17,3 C 0,7 km/h (0 Bft)
22/09/2012 02:10 17,1 C 86 % 1013,2 hPa 0,0 mm 0,0 km/h (0 Bft) S-SO 202 0 min 0 W/m 14,7 C 17,1 C 0,0 km/h (0 Bft)
22/09/2012 02:20 16,9 C 86 % 1013,0 hPa 0,0 mm 1,1 km/h (1 Bft) S-SO 202 0 min 0 W/m 14,5 C 16,9 C 4,3 km/h (1 Bft)
22/09/2012 02:30 16,8 C 87 % 1013,1 hPa 0,0 mm 4,0 km/h (1 Bft) SO 225 0 min 0 W/m 14,6 C 16,8 C 8,3 km/h (2 Bft)
22/09/2012 02:40 16,9 C 87 % 1013,2 hPa 0,0 mm 4,0 km/h (1 Bft) S-SO 202 0 min 0 W/m 14,7 C 16,9 C 7,9 km/h (2 Bft)
22/09/2012 02:50 17,1 C 87 % 1013,3 hPa 0,0 mm 7,9 km/h (2 Bft) S-SO 202 0 min 0 W/m 14,9 C 17,1 C 14,4 km/h (3 Bft)
22/09/2012 03:02 17,4 C 86 % 1013,2 hPa 0,0 mm 6,1 km/h (2 Bft) S-SE 157 0 min 0 W/m 15,0 C 17,4 C 7,9 km/h (2 Bft)
22/09/2012 03:10 17,5 C 86 % 1013,2 hPa 0,0 mm 3,6 km/h (1 Bft) S-SO 202 0 min 0 W/m 15,1 C 17,5 C 8,3 km/h (2 Bft)
22/09/2012 03:20 17,5 C 86 % 1013,1 hPa 0,0 mm 6,8 km/h (2 Bft) O-SO 247 0 min 0 W/m 15,1 C 17,5 C 9,4 km/h (2 Bft)
22/09/2012 03:30 17,4 C 86 % 1013,2 hPa 0,0 mm 4,3 km/h (1 Bft) S-SO 202 0 min 0 W/m 15,0 C 17,4 C 9,0 km/h (2 Bft)
22/09/2012 03:40 17,4 C 86 % 1013,3 hPa 0,0 mm 2,5 km/h (1 Bft) S-SO 202 0 min 0 W/m 15,0 C 17,4 C 7,9 km/h (2 Bft)
22/09/2012 03:50 17,4 C 87 % 1013,2 hPa 0,0 mm 3,6 km/h (1 Bft) SO 225 0 min 0 W/m 15,2 C 17,4 C 8,3 km/h (2 Bft)
22/09/2012 04:00 17,5 C 86 % 1013,5 hPa 0,0 mm 0,0 km/h (0 Bft) O-SO 247 0 min 0 W/m 15,1 C 17,5 C 0,0 km/h (0 Bft)
22/09/2012 04:10 17,5 C 86 % 1013,5 hPa 0,0 mm 0,0 km/h (0 Bft) NO 315 0 min 0 W/m 15,1 C 17,5 C 0,0 km/h (0 Bft)
22/09/2012 04:20 17,2 C 85 % 1013,6 hPa 0,0 mm 0,0 km/h (0 Bft) NE 45 0 min 0 W/m 14,7 C 17,2 C 0,0 km/h (0 Bft)
22/09/2012 04:30 16,8 C 85 % 1013,5 hPa 0,0 mm 0,0 km/h (0 Bft) NE 45 0 min 0 W/m 14,3 C 16,8 C 0,0 km/h (0 Bft)
22/09/2012 04:40 16,5 C 85 % 1013,5 hPa 0,0 mm 2,5 km/h (1 Bft) NE 45 0 min 0 W/m 14,0 C 16,5 C 3,6 km/h (1 Bft)
22/09/2012 04:50 16,2 C 85 % 1013,6 hPa 0,0 mm 2,9 km/h (1 Bft) NE 45 0 min 0 W/m 13,7 C 16,2 C 4,3 km/h (1 Bft)
22/09/2012 05:00 15,8 C 85 % 1013,6 hPa 0,0 mm 1,4 km/h (1 Bft) N-NE 22 0 min 0 W/m 13,3 C 15,8 C 3,6 km/h (1 Bft)
22/09/2012 05:10 15,6 C 86 % 1013,7 hPa 0,0 mm 1,1 km/h (1 Bft) N-NE 22 0 min 0 W/m 13,3 C 15,6 C 2,9 km/h (1 Bft)
22/09/2012 05:20 15,3 C 86 % 1013,7 hPa 0,0 mm 3,6 km/h (1 Bft) N-NE 22 0 min 0 W/m 13,0 C 15,3 C 8,6 km/h (2 Bft)
22/09/2012 05:30 15,1 C 87 % 1013,7 hPa 0,0 mm 0,0 km/h (0 Bft) N-NO 337 0 min 0 W/m 13,0 C 15,1 C 0,0 km/h (0 Bft)
22/09/2012 05:40 14,9 C 87 % 1013,6 hPa 0,0 mm 0,0 km/h (0 Bft) N 360 0 min 0 W/m 12,8 C 14,9 C 0,0 km/h (0 Bft)
22/09/2012 05:50 14,7 C 87 % 1013,8 hPa 0,0 mm 3,2 km/h (1 Bft) N-NE 22 0 min 0 W/m 12,6 C 14,7 C 3,6 km/h (1 Bft)
22/09/2012 06:00 14,5 C 87 % 1013,7 hPa 0,0 mm 0,0 km/h (0 Bft) N-NE 22 0 min 0 W/m 12,4 C 14,5 C 0,0 km/h (0 Bft)
22/09/2012 06:10 14,4 C 88 % 1013,7 hPa 0,0 mm 0,0 km/h (0 Bft) N-NE 22 0 min 0 W/m 12,4 C 14,4 C 0,0 km/h (0 Bft)
22/09/2012 06:20 14,3 C 88 % 1013,8 hPa 0,0 mm 0,0 km/h (0 Bft) NE 45 0 min 0 W/m 12,3 C 14,3 C 0,0 km/h (0 Bft)
22/09/2012 06:30 14,1 C 88 % 1013,7 hPa 0,0 mm 0,0 km/h (0 Bft) N-NE 22 0 min 0 W/m 12,1 C 14,1 C 0,0 km/h (0 Bft)
22/09/2012 06:40 14,0 C 88 % 1013,8 hPa 0,0 mm 0,0 km/h (0 Bft) N-NE 22 0 min 0 W/m 12,0 C 14,0 C 0,0 km/h (0 Bft)
22/09/2012 06:50 14,0 C 89 % 1013,9 hPa 0,0 mm 0,0 km/h (0 Bft) N-NE 22 0 min 0 W/m 12,2 C 14,0 C 0,0 km/h (0 Bft)
22/09/2012 07:00 13,9 C 89 % 1014,0 hPa 0,0 mm 0,0 km/h (0 Bft) N-NE 22 0 min 0 W/m 12,1 C 13,9 C 0,0 km/h (0 Bft)
22/09/2012 07:10 13,9 C 89 % 1014,1 hPa 0,0 mm 0,0 km/h (0 Bft) N-NE 22 0 min 0 W/m 12,1 C 13,9 C 0,0 km/h (0 Bft)
22/09/2012 07:20 13,9 C 89 % 1014,2 hPa 0,0 mm 0,0 km/h (0 Bft) N-NE 22 0 min 0 W/m 12,1 C 13,9 C 0,0 km/h (0 Bft)
22/09/2012 07:30 13,9 C 89 % 1014,3 hPa 0,0 mm 0,0 km/h (0 Bft) NE 45 0 min 0 W/m 12,1 C 13,9 C 0,0 km/h (0 Bft)
22/09/2012 07:40 13,9 C 89 % 1014,5 hPa 0,0 mm 0,0 km/h (0 Bft) NE 45 0 min 0 W/m 12,1 C 13,9 C 0,0 km/h (0 Bft)
22/09/2012 07:50 13,9 C 89 % 1014,6 hPa 0,0 mm 0,0 km/h (0 Bft) NE 45 0 min 0 W/m 12,1 C 13,9 C 0,0 km/h (0 Bft)
22/09/2012 08:00 13,9 C 90 % 1014,7 hPa 0,0 mm 0,0 km/h (0 Bft) NE 45 0 min 0 W/m 12,3 C 13,9 C 0,0 km/h (0 Bft)
22/09/2012 08:10 13,9 C 90 % 1014,9 hPa 0,0 mm 1,4 km/h (1 Bft) N-NE 22 0 min 0 W/m 12,3 C 13,9 C 4,3 km/h (1 Bft)
22/09/2012 08:20 13,9 C 90 % 1014,9 hPa 0,0 mm 0,0 km/h (0 Bft) NE 45 0 min 0 W/m 12,3 C 13,9 C 0,0 km/h (0 Bft)
22/09/2012 08:30 13,9 C 90 % 1014,9 hPa 0,0 mm 0,0 km/h (0 Bft) NE 45 0 min 0 W/m 12,3 C 13,9 C 0,0 km/h (0 Bft)
22/09/2012 08:40 13,9 C 90 % 1014,8 hPa 0,0 mm 0,0 km/h (0 Bft) NE 45 0 min 0 W/m 12,3 C 13,9 C 0,0 km/h (0 Bft)
22/09/2012 08:50 13,9 C 90 % 1015,0 hPa 0,0 mm 0,0 km/h (0 Bft) NE 45 0 min 0 W/m 12,3 C 13,9 C 0,0 km/h (0 Bft)
22/09/2012 09:00 13,9 C 90 % 1015,0 hPa 0,0 mm 0,0 km/h (0 Bft) NE 45 0 min 0 W/m 12,3 C 13,9 C 0,0 km/h (0 Bft)
22/09/2012 09:10 13,9 C 90 % 1015,0 hPa 0,0 mm 0,0 km/h (0 Bft) NE 45 0 min 0 W/m 12,3 C 13,9 C 0,0 km/h (0 Bft)
22/09/2012 09:20 14,0 C 90 % 1015,0 hPa 0,0 mm 0,0 km/h (0 Bft) NE 45 0 min 0 W/m 12,4 C 14,0 C 0,0 km/h (0 Bft)
22/09/2012 09:30 14,1 C 90 % 1015,0 hPa 0,0 mm 0,0 km/h (0 Bft) E-NE 67 0 min 0 W/m 12,5 C 14,1 C 0,0 km/h (0 Bft)
22/09/2012 09:40 14,1 C 91 % 1015,1 hPa 0,0 mm 0,0 km/h (0 Bft) E-NE 67 0 min 0 W/m 12,7 C 14,1 C 0,0 km/h (0 Bft)
22/09/2012 09:50 14,3 C 91 % 1015,1 hPa 0,0 mm 0,0 km/h (0 Bft) E-NE 67 0 min 0 W/m 12,8 C 14,3 C 0,0 km/h (0 Bft)
22/09/2012 10:00 14,3 C 91 % 1015,2 hPa 0,0 mm 0,0 km/h (0 Bft) E-NE 67 0 min 0 W/m 12,8 C 14,3 C 0,0 km/h (0 Bft)
22/09/2012 10:10 14,4 C 91 % 1015,1 hPa 0,0 mm 1,1 km/h (1 Bft) E-NE 67 0 min 0 W/m 12,9 C 14,4 C 3,2 km/h (1 Bft)
22/09/2012 10:20 14,5 C 91 % 1015,2 hPa 0,0 mm 0,7 km/h (0 Bft) E-NE 67 0 min 0 W/m 13,0 C 14,5 C 3,6 km/h (1 Bft)
22/09/2012 10:30 14,6 C 91 % 1015,4 hPa 0,0 mm 0,0 km/h (0 Bft) E-NE 67 0 min 0 W/m 13,1 C 14,6 C 0,0 km/h (0 Bft)
22/09/2012 10:40 14,8 C 91 % 1015,5 hPa 0,0 mm 1,8 km/h (1 Bft) N-NE 22 0 min 0 W/m 13,3 C 14,8 C 4,0 km/h (1 Bft)
22/09/2012 10:50 14,8 C 91 % 1015,6 hPa 0,0 mm 0,4 km/h (0 Bft) NE 45 0 min 0 W/m 13,3 C 14,8 C 0,4 km/h (0 Bft)
22/09/2012 11:00 14,8 C 91 % 1015,5 hPa 0,0 mm 1,8 km/h (1 Bft) NE 45 0 min 0 W/m 13,3 C 14,8 C 7,2 km/h (2 Bft)
22/09/2012 11:10 14,8 C 91 % 1015,6 hPa 0,0 mm 0,0 km/h (0 Bft) NE 45 0 min 0 W/m 13,3 C 14,8 C 0,0 km/h (0 Bft)
22/09/2012 11:20 14,9 C 91 % 1015,6 hPa 0,0 mm 0,4 km/h (0 Bft) E-NE 67 0 min 0 W/m 13,4 C 14,9 C 3,2 km/h (1 Bft)
22/09/2012 11:30 15,0 C 91 % 1015,6 hPa 0,0 mm 0,4 km/h (0 Bft) N-NE 22 0 min 0 W/m 13,5 C 15,0 C 0,4 km/h (0 Bft)
22/09/2012 11:40 15,2 C 91 % 1015,6 hPa 0,0 mm 1,1 km/h (1 Bft) NE 45 0 min 0 W/m 13,7 C 15,2 C 4,0 km/h (1 Bft)
22/09/2012 11:50 15,4 C 91 % 1015,6 hPa 0,0 mm 0,0 km/h (0 Bft) E-NE 67 0 min 0 W/m 13,9 C 15,4 C 3,6 km/h (1 Bft)
22/09/2012 12:00 15,6 C 91 % 1015,5 hPa 0,0 mm 2,9 km/h (1 Bft) N 360 0 min 0 W/m 14,1 C 15,6 C 4,3 km/h (1 Bft)
22/09/2012 12:10 15,7 C 91 % 1015,4 hPa 0,0 mm 0,0 km/h (0 Bft) E-NE 67 0 min 0 W/m 14,2 C 15,7 C 0,0 km/h (0 Bft)
22/09/2012 12:20 15,8 C 91 % 1015,4 hPa 0,0 mm 0,0 km/h (0 Bft) N 360 0 min 0 W/m 14,3 C 15,8 C 0,0 km/h (0 Bft)
_ Min-Heure 09:10 05:00 01:40 - 12:20 - - - - 06:40 09:10 12:20
Minimum _ 13,9 C 85 % 1012,9 hPa - 0,0 km/h (0 Bft) - - - - 12,0 C 13,9 C 0,0 km/h (0 Bft)
_ Max-Heure 04:10 12:20 11:50 12:20 02:50 - - 12:20 12:20 03:50 04:10 02:50
Maximum _ 17,5 C 91 % 1015,6 hPa 0,0 mm 7,9 km/h
S-SO (2 Bft)
- - 0 min 0 W/m 15,2 C 17,5 C 14,4 km/h
S-SO (3 Bft)
Moyenne _ 15,4 C 88 % 1014,1 hPa #0,0 mm 1,2 km/h (1 Bft) NE - #0 min. 0 W/m 13,5 C 15,4 C 2,4 km/h (1 Bft)
Saint Bonnet de Bellac- Haute Vienne - France